Location: Luxembourg
(49.6117°N, 6.1300°E)
Time: 21:46:38
(UTC+01:00)

ISS - Pass Details

Date: 25 January 2019
Orbit: 403 x 411 km, 51.6° (Epoch: 16 February)

Event Time Altitude Azimuth Distance (km) Brightness Sun altitude
Rises 20:03:11 0° 252° (WSW) 2,332 1.2 -26.4°
Reaches altitude 10° 20:05:16 10° 253° (WSW) 1,474 -0.1 -26.7°
Enters shadow 20:06:35 22° 254° (WSW) 948 -1.3 -26.9°
